This is the latest recevied weather packets stored in our database for station/object PACCTY. If no packets are shown the sender has not sent any weather packets the latest 10 day(s).
| Time | Temp. | Humidity | Pressure | Rain* | Wind** | Luminosity | Snow |
|---|---|---|---|---|---|---|---|
| 1777829113 | 21.11° C | 73% | 1008.4 hPa | 0 mm | - | - | - |
| 1777828813 | 21.11° C | 74% | 1008.4 hPa | 0 mm | - | - | - |
| 1777828514 | 20.56° C | 75% | 1008.4 hPa | 0 mm | - | - | - |
| 1777828213 | 20° C | 79% | 1008.4 hPa | 0 mm | - | - | - |
| 1777827913 | 20° C | 80% | 1008.4 hPa | 0 mm | - | - | - |
| 1777827664 | 19.44° C | 77% | 1008.4 hPa | 0 mm | - | - | - |
| 1777827613 | 19.44° C | 77% | 1008.4 hPa | 0 mm | - | - | - |
| 1777827313 | 18.89° C | 78% | 1008.5 hPa | 0 mm | - | - | - |
| 1777827013 | 18.89° C | 78% | 1008.5 hPa | 0 mm | - | - | - |
| 1777826713 | 18.33° C | 81% | 1008.5 hPa | 0 mm | - | - | - |
| 1777826413 | 18.33° C | 81% | 1008.5 hPa | 0 mm | - | - | - |
| 1777826113 | 17.78° C | 82% | 1008.5 hPa | 0 mm | - | - | - |
| 1777825815 | 17.78° C | 83% | 1008.6 hPa | 0 mm | - | - | - |
| 1777825513 | 17.22° C | 83% | 1008.6 hPa | 0 mm | - | - | - |
| 1777825213 | 17.22° C | 84% | 1008.6 hPa | 0 mm | - | - | - |
| 1777824914 | 16.67° C | 85% | 1008.6 hPa | 0 mm | - | - | - |
| 1777824613 | 16.11° C | 86% | 1008.6 hPa | 0 mm | - | - | - |
| 1777824315 | 16.11° C | 88% | 1008.7 hPa | 0 mm | - | - | - |
| 1777824014 | 15.56° C | 89% | 1008.7 hPa | 0 mm | - | - | - |
| 1777823713 | 15° C | 90% | 1008.7 hPa | 0 mm | - | - | - |
| 1777823413 | 15° C | 91% | 1008.7 hPa | 0 mm | - | - | - |
| 1777823113 | 14.44° C | 92% | 1008.8 hPa | 0 mm | - | - | - |
| 1777822813 | 14.44° C | 92% | 1008.8 hPa | 0 mm | - | - | - |
| 1777822513 | 14.44° C | 92% | 1008.8 hPa | 0 mm | - | - | - |
| 1777822214 | 13.89° C | 93% | 1008.9 hPa | 0 mm | - | - | - |
* Rain latest hour (hover to see other rain measurements)
** Current wind speed in m/s (hover to see current wind gust speed)